M I D A S
Marine Information and Data Acquisition System
Tripno 1521 of the Zeeleeuw from 2008-07-17 06:24:38 to 2008-07-17 15:20:31
Back to CruiseResearch ActivitiesStationsMapUnderway DataData graphs

EquipmentUnitsComments
TimeDGPSUTC
LatitudeDGPSDM.mWGS84
LongitudeDGPSDM.mWGS84
SpeedMeteo Stationm/sRelative wind speed
DirectionMeteo StationdegRelative wind direction
TemperatureMeteo Stationdeg CelciusAir temperature
PressureMeteo StationPaAtmospheric pressure
HumidityMeteo Station%Relative humidity
Missing or incorrect values are displayed as -999
Metereological data collected by the RV Zeeleeuw from 2008-07-17 06:27:00 to 2008-07-17 15:22:41
                                                                                    Next 1000 lines
Time Latitude Longitude Speed Direction Temperature Pressure Humidity
2008-07-17 06:27:09 51°13.623 2°56.045 -999 -999 -999 -999 -999
2008-07-17 06:27:14 51°13.624 2°56.043 -999 -999 -999 -999 -999
2008-07-17 06:27:19 51°13.625 2°56.04 -999 -999 -999 -999 -999
2008-07-17 06:27:25 51°13.626 2°56.036 -999 -999 -999 -999 -999
2008-07-17 06:27:29 51°13.627 2°56.033 -999 -999 -999 -999 -999
2008-07-17 06:27:34 51°13.628 2°56.029 -999 -999 -999 -999 -999
2008-07-17 06:27:39 51°13.629 2°56.024 -999 -999 -999 -999 -999
2008-07-17 06:27:44 51°13.631 2°56.019 -999 -999 -999 -999 -999
2008-07-17 06:27:49 51°13.632 2°56.014 -999 -999 -999 -999 -999
2008-07-17 06:27:54 51°13.634 2°56.009 -999 -999 -999 -999 -999
2008-07-17 06:27:59 51°13.635 2°56.003 -999 -999 -999 -999 -999
2008-07-17 06:28:04 51°13.637 2°55.996 -999 -999 -999 -999 -999
2008-07-17 06:28:09 51°13.639 2°55.989 -999 -999 -999 -999 -999
2008-07-17 06:28:15 51°13.641 2°55.981 -999 -999 -999 -999 -999
2008-07-17 06:28:19 51°13.641 2°55.976 -999 -999 -999 -999 -999
2008-07-17 06:28:24 51°13.642 2°55.97 -999 -999 -999 -999 -999
2008-07-17 06:28:29 51°13.643 2°55.965 -999 -999 -999 -999 -999
2008-07-17 06:28:35 51°13.644 2°55.96 -999 -999 -999 -999 -999
2008-07-17 06:28:40 51°13.644 2°55.958 -999 -999 -999 -999 -999
2008-07-17 06:28:44 51°13.645 2°55.957 -999 -999 -999 -999 -999
2008-07-17 06:28:49 51°13.645 2°55.956 -999 -999 -999 -999 -999
2008-07-17 06:28:54 51°13.645 2°55.956 -999 -999 -999 -999 -999
2008-07-17 06:28:59 51°13.645 2°55.955 -999 -999 -999 -999 -999
2008-07-17 06:29:04 51°13.645 2°55.954 -999 -999 -999 -999 -999
2008-07-17 06:29:09 51°13.646 2°55.952 -999 -999 -999 -999 -999
2008-07-17 06:29:14 51°13.646 2°55.95 -999 -999 -999 -999 -999
2008-07-17 06:29:20 51°13.647 2°55.946 -999 -999 -999 -999 -999
2008-07-17 06:29:25 51°13.648 2°55.943 -999 -999 -999 -999 -999
2008-07-17 06:29:29 51°13.649 2°55.939 -999 -999 -999 -999 -999
2008-07-17 06:29:34 51°13.65 2°55.935 -999 -999 -999 -999 -999
2008-07-17 06:29:39 51°13.652 2°55.93 -999 -999 -999 -999 -999
2008-07-17 06:29:45 51°13.654 2°55.924 -999 -999 -999 -999 -999
2008-07-17 06:29:49 51°13.655 2°55.919 -999 -999 -999 -999 -999
2008-07-17 06:29:54 51°13.657 2°55.914 -999 -999 -999 -999 -999
2008-07-17 06:29:59 51°13.659 2°55.908 -999 -999 -999 -999 -999
2008-07-17 06:30:05 51°13.661 2°55.9 -999 -999 -999 -999 -999
2008-07-17 06:30:09 51°13.662 2°55.895 -999 -999 -999 -999 -999
2008-07-17 06:30:14 51°13.664 2°55.888 -999 -999 -999 -999 -999
2008-07-17 06:30:19 51°13.666 2°55.881 -999 -999 -999 -999 -999
2008-07-17 06:30:24 51°13.668 2°55.874 -999 -999 -999 -999 -999
2008-07-17 06:30:29 51°13.671 2°55.867 -999 -999 -999 -999 -999
2008-07-17 06:30:35 51°13.673 2°55.859 -999 -999 -999 -999 -999
2008-07-17 06:30:39 51°13.675 2°55.853 -999 -999 -999 -999 -999
2008-07-17 06:30:44 51°13.677 2°55.845 -999 -999 -999 -999 -999
2008-07-17 06:30:49 51°13.679 2°55.838 -999 -999 -999 -999 -999
2008-07-17 06:30:55 51°13.682 2°55.829 -999 -999 -999 -999 -999
2008-07-17 06:31:00 51°13.684 2°55.821 -999 -999 -999 -999 -999
2008-07-17 06:31:04 51°13.686 2°55.815 -999 -999 -999 -999 -999
2008-07-17 06:31:09 51°13.688 2°55.808 -999 -999 -999 -999 -999
2008-07-17 06:31:14 51°13.689 2°55.801 -999 -999 -999 -999 -999
2008-07-17 06:31:20 51°13.692 2°55.792 -999 -999 -999 -999 -999
2008-07-17 06:31:24 51°13.693 2°55.786 -999 -999 -999 -999 -999
2008-07-17 06:31:29 51°13.694 2°55.779 -999 -999 -999 -999 -999
2008-07-17 06:31:34 51°13.695 2°55.772 -999 -999 -999 -999 -999
2008-07-17 06:31:40 51°13.697 2°55.765 -999 -999 -999 -999 -999
2008-07-17 06:31:45 51°13.698 2°55.759 -999 -999 -999 -999 -999
2008-07-17 06:31:49 51°13.699 2°55.754 -999 -999 -999 -999 -999
2008-07-17 06:31:54 51°13.7 2°55.749 -999 -999 -999 -999 -999
2008-07-17 06:31:59 51°13.701 2°55.745 -999 -999 -999 -999 -999
2008-07-17 06:32:04 51°13.701 2°55.741 -999 -999 -999 -999 -999
2008-07-17 06:32:09 51°13.702 2°55.738 -999 -999 -999 -999 -999
2008-07-17 06:32:14 51°13.703 2°55.737 -999 -999 -999 -999 -999
2008-07-17 06:32:19 51°13.703 2°55.736 -999 -999 -999 -999 -999
2008-07-17 06:32:24 51°13.703 2°55.736 -999 -999 -999 -999 -999
2008-07-17 06:32:29 51°13.704 2°55.737 -999 -999 -999 -999 -999
2008-07-17 06:32:34 51°13.705 2°55.738 -999 -999 -999 -999 -999
2008-07-17 06:32:39 51°13.706 2°55.74 -999 -999 -999 -999 -999
2008-07-17 06:32:44 51°13.708 2°55.743 -999 -999 -999 -999 -999
2008-07-17 06:32:49 51°13.71 2°55.745 -999 -999 -999 -999 -999
2008-07-17 06:32:54 51°13.712 2°55.748 -999 -999 -999 -999 -999
2008-07-17 06:32:59 51°13.715 2°55.75 -999 -999 -999 -999 -999
2008-07-17 06:33:04 51°13.718 2°55.752 -999 -999 -999 -999 -999
2008-07-17 06:33:09 51°13.721 2°55.753 -999 -999 -999 -999 -999
2008-07-17 06:33:14 51°13.723 2°55.753 -999 -999 -999 -999 -999
2008-07-17 06:33:19 51°13.725 2°55.753 -999 -999 -999 -999 -999
2008-07-17 06:33:24 51°13.726 2°55.753 -999 -999 -999 -999 -999
2008-07-17 06:33:29 51°13.727 2°55.753 -999 -999 -999 -999 -999
2008-07-17 06:33:34 51°13.727 2°55.752 -999 -999 -999 -999 -999
2008-07-17 06:33:39 51°13.727 2°55.752 -999 -999 -999 -999 -999
2008-07-17 06:33:44 51°13.727 2°55.751 -999 -999 -999 -999 -999
2008-07-17 06:33:49 51°13.726 2°55.751 -999 -999 -999 -999 -999
2008-07-17 06:33:54 51°13.724 2°55.751 -999 -999 -999 -999 -999
2008-07-17 06:33:59 51°13.723 2°55.751 -999 -999 -999 -999 -999
2008-07-17 06:34:05 51°13.722 2°55.75 -999 -999 -999 -999 -999
2008-07-17 06:34:09 51°13.721 2°55.75 -999 -999 -999 -999 -999
2008-07-17 06:34:14 51°13.72 2°55.75 -999 -999 -999 -999 -999
2008-07-17 06:34:19 51°13.72 2°55.75 -999 -999 -999 -999 -999
2008-07-17 06:34:24 51°13.719 2°55.749 -999 -999 -999 -999 -999
2008-07-17 06:34:29 51°13.72 2°55.749 -999 -999 -999 -999 -999
2008-07-17 06:34:34 51°13.721 2°55.748 -999 -999 -999 -999 -999
2008-07-17 06:34:39 51°13.722 2°55.746 -999 -999 -999 -999 -999
2008-07-17 06:34:44 51°13.724 2°55.745 -999 -999 -999 -999 -999
2008-07-17 06:34:49 51°13.726 2°55.743 -999 -999 -999 -999 -999
2008-07-17 06:34:54 51°13.728 2°55.74 -999 -999 -999 -999 -999
2008-07-17 06:34:59 51°13.731 2°55.737 -999 -999 -999 -999 -999
2008-07-17 06:35:04 51°13.735 2°55.734 -999 -999 -999 -999 -999
2008-07-17 06:35:09 51°13.739 2°55.729 -999 -999 -999 -999 -999
2008-07-17 06:35:14 51°13.744 2°55.724 -999 -999 -999 -999 -999
2008-07-17 06:35:20 51°13.751 2°55.716 -999 -999 -999 -999 -999
2008-07-17 06:35:24 51°13.756 2°55.711 -999 -999 -999 -999 -999
2008-07-17 06:35:29 51°13.762 2°55.703 -999 -999 -999 -999 -999
2008-07-17 06:35:34 51°13.77 2°55.695 -999 -999 -999 -999 -999
2008-07-17 06:35:39 51°13.778 2°55.687 -999 -999 -999 -999 -999
2008-07-17 06:35:44 51°13.786 2°55.678 -999 -999 -999 -999 -999
2008-07-17 06:35:49 51°13.795 2°55.67 -999 -999 -999 -999 -999
2008-07-17 06:35:54 51°13.804 2°55.661 -999 -999 -999 -999 -999
2008-07-17 06:35:59 51°13.813 2°55.652 -999 -999 -999 -999 -999
2008-07-17 06:36:04 51°13.823 2°55.643 -999 -999 -999 -999 -999
2008-07-17 06:36:09 51°13.833 2°55.634 -999 -999 -999 -999 -999
2008-07-17 06:36:14 51°13.843 2°55.625 -999 -999 -999 -999 -999
2008-07-17 06:36:19 51°13.853 2°55.617 -999 -999 -999 -999 -999
2008-07-17 06:36:25 51°13.866 2°55.606 -999 -999 -999 -999 -999
2008-07-17 06:36:29 51°13.875 2°55.599 -999 -999 -999 -999 -999
2008-07-17 06:36:34 51°13.886 2°55.591 -999 -999 -999 -999 -999
2008-07-17 06:36:39 51°13.896 2°55.582 -999 -999 -999 -999 -999
2008-07-17 06:36:45 51°13.91 2°55.571 -999 -999 -999 -999 -999
2008-07-17 06:36:49 51°13.918 2°55.564 -999 -999 -999 -999 -999
2008-07-17 06:36:54 51°13.93 2°55.555 -999 -999 -999 -999 -999
2008-07-17 06:36:59 51°13.941 2°55.546 -999 -999 -999 -999 -999
2008-07-17 06:37:04 51°13.952 2°55.537 -999 -999 -999 -999 -999
2008-07-17 06:37:09 51°13.963 2°55.528 -999 -999 -999 -999 -999
2008-07-17 06:37:14 51°13.974 2°55.52 -999 -999 -999 -999 -999
2008-07-17 06:37:19 51°13.985 2°55.511 -999 -999 -999 -999 -999
2008-07-17 06:37:24 51°13.997 2°55.503 -999 -999 -999 -999 -999
2008-07-17 06:37:29 51°14.007 2°55.494 -999 -999 -999 -999 -999
2008-07-17 06:37:34 51°14.019 2°55.486 -999 -999 -999 -999 -999
2008-07-17 06:37:39 51°14.03 2°55.477 -999 -999 -999 -999 -999
2008-07-17 06:37:44 51°14.041 2°55.468 -999 -999 -999 -999 -999
2008-07-17 06:37:49 51°14.052 2°55.46 7.3 329 -999 -999 -999
2008-07-17 06:37:54 51°14.063 2°55.451 6.9 284 -999 -999 -999
2008-07-17 06:37:58 51°14.072 2°55.444 6.7 327 -999 -999 -999
2008-07-17 06:38:03 51°14.083 2°55.435 7.4 278 -999 -999 -999
2008-07-17 06:38:08 51°14.094 2°55.426 7.2 326 15 -999 68
2008-07-17 06:38:13 51°14.106 2°55.417 7.4 279 15 -999 68
2008-07-17 06:38:18 51°14.117 2°55.408 7.1 326 15.1 -999 78
2008-07-17 06:38:23 51°14.129 2°55.399 7.7 301 15.1 -999 78
2008-07-17 06:38:28 51°14.14 2°55.391 6.7 325 15.1 101550 78
2008-07-17 06:38:33 51°14.151 2°55.381 6.7 284 15.1 101550 78
2008-07-17 06:38:37 51°14.159 2°55.374 6.9 327 15.1 101550 78
2008-07-17 06:38:42 51°14.17 2°55.364 7.1 327 15.1 101550 78
2008-07-17 06:38:46 51°14.178 2°55.356 7.9 329 15.1 101550 78
2008-07-17 06:38:51 51°14.189 2°55.345 8 283 15.1 101550 78
2008-07-17 06:38:56 51°14.199 2°55.334 8.5 330 15.1 101550 79
2008-07-17 06:39:01 51°14.209 2°55.322 8.6 284 15.1 101550 79
2008-07-17 06:39:06 51°14.218 2°55.31 7.6 331 15.2 101550 79
2008-07-17 06:39:11 51°14.228 2°55.297 8 329 15.2 101550 79
2008-07-17 06:39:16 51°14.237 2°55.284 8 328 15.2 101550 78
2008-07-17 06:39:21 51°14.246 2°55.271 7.6 278 15.2 101550 78
2008-07-17 06:39:26 51°14.255 2°55.258 7.3 328 15.2 101550 78
2008-07-17 06:39:31 51°14.264 2°55.244 7.7 284 15.2 101550 78
2008-07-17 06:39:36 51°14.273 2°55.23 7.9 329 15.2 101550 77
2008-07-17 06:39:41 51°14.281 2°55.215 8.5 284 15.2 101550 77
2008-07-17 06:39:45 51°14.288 2°55.204 7.6 329 15.2 101550 77
2008-07-17 06:39:51 51°14.298 2°55.186 7.6 330 15.2 101550 77
2008-07-17 06:39:56 51°14.306 2°55.171 8.1 330 15.3 101550 77
2008-07-17 06:40:01 51°14.313 2°55.156 7 279 15.3 101550 77
2008-07-17 06:40:05 51°14.32 2°55.144 8.3 331 15.3 101550 77
2008-07-17 06:40:11 51°14.33 2°55.126 7.9 332 15.3 101550 77
2008-07-17 06:40:16 51°14.337 2°55.111 7.9 331 15.3 101550 77
2008-07-17 06:40:21 51°14.345 2°55.096 7.8 329 15.3 101550 77
2008-07-17 06:40:26 51°14.352 2°55.08 8.7 330 15.3 101550 77
2008-07-17 06:40:31 51°14.359 2°55.063 9.1 281 15.3 101550 77
2008-07-17 06:40:36 51°14.366 2°55.045 8.9 334 15.4 101550 77
2008-07-17 06:40:41 51°14.372 2°55.026 9.3 334 15.4 101550 77
2008-07-17 06:40:45 51°14.377 2°55.009 9.7 334 15.4 101550 77
2008-07-17 06:40:51 51°14.383 2°54.984 8.7 278 15.4 101550 77
2008-07-17 06:40:56 51°14.388 2°54.962 9.2 336 15.4 101550 77
2008-07-17 06:41:01 51°14.392 2°54.939 8.9 335 15.4 101550 77
2008-07-17 06:41:06 51°14.396 2°54.915 9 338 15.4 101550 77
2008-07-17 06:41:11 51°14.399 2°54.891 9.8 281 15.4 101550 77
2008-07-17 06:41:16 51°14.401 2°54.866 10.3 339 15.5 101550 77
2008-07-17 06:41:21 51°14.403 2°54.84 9.4 282 15.5 101550 77
2008-07-17 06:41:26 51°14.404 2°54.815 10.3 340 15.5 101550 77
2008-07-17 06:41:31 51°14.405 2°54.789 9.8 338 15.5 101550 77
2008-07-17 06:41:36 51°14.405 2°54.762 10.2 339 15.5 101550 77
2008-07-17 06:41:41 51°14.404 2°54.736 10.4 281 15.5 101550 77
2008-07-17 06:41:46 51°14.403 2°54.71 9.8 341 15.5 101550 77
2008-07-17 06:41:51 51°14.401 2°54.684 9.8 279 15.5 101550 77
2008-07-17 06:41:56 51°14.398 2°54.658 9.4 343 15.6 101540 77
2008-07-17 06:42:01 51°14.394 2°54.632 9.7 279 15.6 101540 77
2008-07-17 06:42:05 51°14.391 2°54.611 11.1 345 15.6 101550 77
2008-07-17 06:42:11 51°14.385 2°54.579 10.2 342 15.6 101550 77
2008-07-17 06:42:16 51°14.379 2°54.553 10 342 15.6 101540 77
2008-07-17 06:42:21 51°14.372 2°54.527 10.3 279 15.6 101540 77
2008-07-17 06:42:26 51°14.366 2°54.501 11 344 15.5 101550 77
2008-07-17 06:42:31 51°14.359 2°54.476 10.9 350 15.5 101550 77
2008-07-17 06:42:36 51°14.352 2°54.45 10.3 347 15.6 101540 78
2008-07-17 06:42:41 51°14.345 2°54.426 10.2 276 15.6 101540 78
2008-07-17 06:42:45 51°14.338 2°54.406 10.2 352 15.6 101540 78
2008-07-17 06:42:51 51°14.328 2°54.377 9.4 279 15.6 101540 78
2008-07-17 06:42:56 51°14.319 2°54.352 10.9 351 15.6 101540 78
2008-07-17 06:43:01 51°14.31 2°54.327 10.8 349 15.6 101540 78
2008-07-17 06:43:06 51°14.303 2°54.302 11.5 350 15.6 101540 78
2008-07-17 06:43:11 51°14.294 2°54.276 11.5 348 15.6 101540 78
2008-07-17 06:43:16 51°14.287 2°54.251 11.2 349 15.6 101540 79
2008-07-17 06:43:21 51°14.279 2°54.225 11 350 15.6 101540 79
2008-07-17 06:43:25 51°14.272 2°54.205 10.8 348 15.6 101530 79
2008-07-17 06:43:31 51°14.262 2°54.174 11 350 15.6 101530 79
2008-07-17 06:43:36 51°14.255 2°54.149 10.8 351 15.6 101530 80
2008-07-17 06:43:41 51°14.247 2°54.123 10.5 350 15.6 101530 80
2008-07-17 06:43:46 51°14.239 2°54.098 10.2 351 15.6 101530 80
2008-07-17 06:43:51 51°14.231 2°54.072 10.5 351 15.6 101530 80
2008-07-17 06:43:56 51°14.223 2°54.047 10.2 351 15.6 101530 80
2008-07-17 06:44:01 51°14.215 2°54.021 10 349 15.6 101530 80
2008-07-17 06:44:06 51°14.207 2°53.995 10.1 349 15.5 101540 80
2008-07-17 06:44:11 51°14.199 2°53.97 10.2 279 15.5 101540 80
2008-07-17 06:44:16 51°14.19 2°53.944 10.4 346 15.5 101540 80
2008-07-17 06:44:21 51°14.183 2°53.918 10.2 347 15.5 101540 80
2008-07-17 06:44:25 51°14.176 2°53.898 10.4 347 15.5 101530 80
2008-07-17 06:44:31 51°14.166 2°53.867 10.3 346 15.5 101530 80
2008-07-17 06:44:36 51°14.158 2°53.841 9.9 346 15.5 101540 80
2008-07-17 06:44:41 51°14.149 2°53.815 10.4 280 15.5 101540 80
2008-07-17 06:44:45 51°14.143 2°53.794 9.5 346 15.5 101540 81
2008-07-17 06:44:51 51°14.133 2°53.764 10.7 347 15.5 101540 81
2008-07-17 06:44:56 51°14.124 2°53.738 10.5 347 15.4 101540 81
2008-07-17 06:45:01 51°14.116 2°53.712 10 346 15.4 101540 81
2008-07-17 06:45:06 51°14.107 2°53.686 10.7 347 15.4 101540 81
2008-07-17 06:45:11 51°14.099 2°53.661 10.2 349 15.4 101540 81
2008-07-17 06:45:16 51°14.091 2°53.635 10.4 348 15.4 101540 80
2008-07-17 06:45:21 51°14.083 2°53.609 10.6 349 15.4 101540 80
2008-07-17 06:45:26 51°14.074 2°53.583 10.8 349 15.4 101540 81
2008-07-17 06:45:31 51°14.066 2°53.558 10.1 349 15.4 101540 81
2008-07-17 06:45:36 51°14.057 2°53.532 11 351 15.4 101540 81
2008-07-17 06:45:41 51°14.049 2°53.507 10.1 351 15.4 101540 81
2008-07-17 06:45:45 51°14.042 2°53.486 10.1 348 15.4 101540 82
2008-07-17 06:45:51 51°14.032 2°53.455 10.3 350 15.4 101540 82
2008-07-17 06:45:56 51°14.024 2°53.429 9.9 350 15.4 101530 82
2008-07-17 06:46:01 51°14.015 2°53.403 10.4 351 15.4 101530 82
2008-07-17 06:46:06 51°14.006 2°53.377 10.2 350 15.4 101530 82
2008-07-17 06:46:11 51°13.998 2°53.352 9.8 279 15.4 101530 82
2008-07-17 06:46:16 51°13.989 2°53.326 10 347 15.4 101530 82
2008-07-17 06:46:21 51°13.981 2°53.3 10.5 282 15.4 101530 82
2008-07-17 06:46:26 51°13.973 2°53.274 10.7 349 15.4 101530 82
2008-07-17 06:46:31 51°13.965 2°53.248 11.9 347 15.4 101530 82
2008-07-17 06:46:36 51°13.956 2°53.222 11.3 347 15.4 101530 83
2008-07-17 06:46:41 51°13.948 2°53.196 12.2 277 15.4 101530 83
2008-07-17 06:46:45 51°13.941 2°53.175 12 348 15.4 101530 83
2008-07-17 06:46:51 51°13.932 2°53.144 11.2 347 15.4 101530 83
2008-07-17 06:46:56 51°13.923 2°53.118 11.4 349 15.4 101530 83
2008-07-17 06:47:01 51°13.915 2°53.092 11.1 348 15.4 101530 83
2008-07-17 06:47:06 51°13.906 2°53.066 10.8 350 15.4 101530 83
2008-07-17 06:47:11 51°13.898 2°53.04 10.4 280 15.4 101530 83
2008-07-17 06:47:16 51°13.889 2°53.015 11.1 349 15.4 101530 83
2008-07-17 06:47:21 51°13.881 2°52.988 11 349 15.4 101530 83
2008-07-17 06:47:26 51°13.872 2°52.963 12 350 15.3 101530 83
2008-07-17 06:47:31 51°13.863 2°52.937 11.3 279 15.3 101530 83
2008-07-17 06:47:36 51°13.854 2°52.911 11.3 351 15.3 101530 83
2008-07-17 06:47:41 51°13.846 2°52.885 11.5 350 15.3 101530 83
2008-07-17 06:47:45 51°13.839 2°52.865 11.7 350 15.4 101530 83
2008-07-17 06:47:51 51°13.829 2°52.834 11.5 350 15.4 101530 83
2008-07-17 06:47:56 51°13.821 2°52.808 10.9 351 15.3 101530 83
2008-07-17 06:48:01 51°13.813 2°52.782 10.1 352 15.3 101530 83
2008-07-17 06:48:06 51°13.805 2°52.756 10.1 351 15.3 101530 83
2008-07-17 06:48:11 51°13.797 2°52.73 10.3 279 15.3 101530 83
2008-07-17 06:48:16 51°13.789 2°52.703 11 349 15.2 101530 83
2008-07-17 06:48:21 51°13.781 2°52.677 10.8 350 15.2 101530 83
2008-07-17 06:48:26 51°13.774 2°52.651 10.1 350 15.2 101530 83
2008-07-17 06:48:31 51°13.767 2°52.624 10 350 15.2 101530 83
2008-07-17 06:48:36 51°13.759 2°52.598 10 351 15.2 101530 84
2008-07-17 06:48:41 51°13.752 2°52.571 9.9 280 15.2 101530 84
2008-07-17 06:48:45 51°13.747 2°52.55 10.2 348 15.2 101530 83
2008-07-17 06:48:51 51°13.739 2°52.518 10.3 348 15.2 101530 83
2008-07-17 06:48:56 51°13.732 2°52.491 10.1 348 15.1 101540 83
2008-07-17 06:49:01 51°13.725 2°52.464 10.2 351 15.1 101540 83
2008-07-17 06:49:05 51°13.72 2°52.443 10.3 350 15.1 101530 83
2008-07-17 06:49:11 51°13.712 2°52.41 9.5 349 15.1 101530 83
2008-07-17 06:49:16 51°13.705 2°52.384 10.5 350 15.1 101530 83
2008-07-17 06:49:21 51°13.699 2°52.357 10.2 278 15.1 101530 83
2008-07-17 06:49:26 51°13.692 2°52.33 10.7 348 15.1 101530 83
2008-07-17 06:49:31 51°13.686 2°52.303 11.2 349 15.1 101530 83
2008-07-17 06:49:36 51°13.679 2°52.276 10.5 349 15.1 101530 83
2008-07-17 06:49:41 51°13.672 2°52.249 10.2 348 15.1 101530 83
2008-07-17 06:49:45 51°13.667 2°52.228 10.1 349 15 101530 83
2008-07-17 06:49:51 51°13.66 2°52.198 10 352 15 101530 83
2008-07-17 06:49:56 51°13.653 2°52.175 9.3 352 15 101530 83
2008-07-17 06:50:01 51°13.648 2°52.153 8.9 350 15 101530 83
2008-07-17 06:50:06 51°13.641 2°52.133 8.5 352 15 101530 83
2008-07-17 06:50:11 51°13.636 2°52.114 8.6 353 15 101530 83
2008-07-17 06:50:16 51°13.63 2°52.097 7.7 356 15 101530 83
2008-07-17 06:50:21 51°13.624 2°52.081 7.6 357 15 101530 83
2008-07-17 06:50:26 51°13.618 2°52.066 7 356 15 101540 84
2008-07-17 06:50:31 51°13.612 2°52.052 6.6 359 15 101540 84
2008-07-17 06:50:36 51°13.607 2°52.038 6.8 -999 15 101540 84
2008-07-17 06:50:41 51°13.601 2°52.025 6.3 359 15 101540 84
2008-07-17 06:50:46 51°13.596 2°52.013 6.1 359 15.1 101540 84
2008-07-17 06:50:51 51°13.59 2°52.001 6 360 15.1 101540 84
2008-07-17 06:50:56 51°13.585 2°51.989 6.1 358 15 101540 84
2008-07-17 06:51:01 51°13.58 2°51.978 6.3 357 15 101540 84
2008-07-17 06:51:05 51°13.576 2°51.969 6 -999 15 101550 84
2008-07-17 06:51:11 51°13.571 2°51.956 6.7 358 15 101550 84
2008-07-17 06:51:16 51°13.566 2°51.945 6.2 357 15.1 101550 85
2008-07-17 06:51:21 51°13.562 2°51.935 6.8 357 15.1 101550 85
2008-07-17 06:51:25 51°13.559 2°51.926 6 357 15.1 101550 85
2008-07-17 06:51:31 51°13.555 2°51.914 5.2 355 15.1 101550 85
2008-07-17 06:51:36 51°13.551 2°51.904 5.8 356 15 101540 85
2008-07-17 06:51:41 51°13.548 2°51.894 6.4 357 15 101540 85
2008-07-17 06:51:46 51°13.545 2°51.884 6.3 358 15 101550 84
2008-07-17 06:51:51 51°13.542 2°51.875 6.4 356 15 101550 84
2008-07-17 06:51:56 51°13.539 2°51.865 6.5 356 15 101550 84
2008-07-17 06:52:01 51°13.537 2°51.855 6.1 356 15 101550 84
2008-07-17 06:52:06 51°13.534 2°51.846 6 356 15 101550 85
2008-07-17 06:52:11 51°13.532 2°51.836 6.1 359 15 101550 85
2008-07-17 06:52:16 51°13.529 2°51.827 6 355 15 101540 85
2008-07-17 06:52:21 51°13.527 2°51.817 6.2 353 15 101540 85
2008-07-17 06:52:25 51°13.525 2°51.81 5.8 354 15 101550 84
2008-07-17 06:52:31 51°13.522 2°51.798 5.6 351 15 101550 84
2008-07-17 06:52:36 51°13.52 2°51.789 5.8 353 15 101550 84
2008-07-17 06:52:41 51°13.518 2°51.78 5.9 354 15 101550 84
2008-07-17 06:52:46 51°13.516 2°51.77 5.5 353 15 101550 85
2008-07-17 06:52:51 51°13.514 2°51.761 5.9 352 15 101550 85
2008-07-17 06:52:56 51°13.512 2°51.751 5.5 348 15 101550 85
2008-07-17 06:53:01 51°13.51 2°51.742 6.1 278 15 101550 85
2008-07-17 06:53:06 51°13.508 2°51.732 6 352 15 101550 85
2008-07-17 06:53:11 51°13.506 2°51.722 5.7 351 15 101550 85
2008-07-17 06:53:16 51°13.504 2°51.712 6.3 349 15 101550 85
2008-07-17 06:53:21 51°13.502 2°51.702 6 351 15 101550 85
2008-07-17 06:53:25 51°13.5 2°51.693 6.2 352 15 101550 85
2008-07-17 06:53:31 51°13.498 2°51.681 6.1 351 15 101550 85
2008-07-17 06:53:36 51°13.496 2°51.67 6.1 350 15 101550 85
2008-07-17 06:53:41 51°13.494 2°51.659 6.6 351 15 101550 85
2008-07-17 06:53:46 51°13.492 2°51.648 6.8 351 15 101550 85
2008-07-17 06:53:51 51°13.49 2°51.636 6.8 279 15 101550 85
2008-07-17 06:53:56 51°13.489 2°51.625 6.6 348 15 101550 85
2008-07-17 06:54:01 51°13.487 2°51.614 6.8 348 15 101550 85
2008-07-17 06:54:06 51°13.485 2°51.602 6.7 348 15 101550 85
2008-07-17 06:54:11 51°13.483 2°51.59 6.6 350 15 101550 85
2008-07-17 06:54:16 51°13.481 2°51.579 6.3 349 15 101550 85
2008-07-17 06:54:21 51°13.48 2°51.567 6.3 280 15 101550 85
2008-07-17 06:54:25 51°13.478 2°51.557 6.5 349 15 101550 85
2008-07-17 06:54:31 51°13.476 2°51.543 6.3 278 15 101550 85
2008-07-17 06:54:35 51°13.474 2°51.534 5.9 350 15 101550 85
2008-07-17 06:54:41 51°13.471 2°51.519 6.3 351 15 101550 85
2008-07-17 06:54:46 51°13.469 2°51.508 5.8 352 15 101550 85
2008-07-17 06:54:51 51°13.467 2°51.497 5.3 354 15 101550 85
2008-07-17 06:54:56 51°13.465 2°51.486 5.7 352 14.9 101550 85
2008-07-17 06:55:01 51°13.462 2°51.476 5.7 354 14.9 101550 85
2008-07-17 06:55:06 51°13.46 2°51.466 5.9 355 14.9 101550 85
2008-07-17 06:55:11 51°13.458 2°51.457 5.9 355 14.9 101550 85
2008-07-17 06:55:16 51°13.455 2°51.447 6 357 15 101560 85
2008-07-17 06:55:21 51°13.452 2°51.439 5.8 358 15 101560 85
2008-07-17 06:55:26 51°13.45 2°51.43 5.5 358 15 101550 85
2008-07-17 06:55:31 51°13.447 2°51.422 5.8 359 15 101550 85
2008-07-17 06:55:36 51°13.444 2°51.414 5 3 14.9 101550 85
2008-07-17 06:55:41 51°13.442 2°51.407 4.6 2 14.9 101550 85
2008-07-17 06:55:45 51°13.439 2°51.402 5.1 4 14.9 101550 84
2008-07-17 06:55:51 51°13.436 2°51.393 5.2 5 14.9 101550 84
2008-07-17 06:55:56 51°13.433 2°51.387 4.9 6 14.9 101550 85
2008-07-17 06:56:01 51°13.43 2°51.38 4.9 7 14.9 101550 85
2008-07-17 06:56:06 51°13.427 2°51.374 4.9 8 14.9 101550 85
2008-07-17 06:56:11 51°13.424 2°51.368 4.4 8 14.9 101550 85
2008-07-17 06:56:16 51°13.422 2°51.363 5.3 8 14.9 101550 85
2008-07-17 06:56:21 51°13.419 2°51.358 4.9 8 14.9 101550 85
2008-07-17 06:56:26 51°13.417 2°51.353 4.8 9 14.9 101550 85
2008-07-17 06:56:31 51°13.415 2°51.349 4.4 9 14.9 101550 85
2008-07-17 06:56:36 51°13.413 2°51.345 4.3 14 14.9 101550 85
2008-07-17 06:56:41 51°13.41 2°51.341 4.1 20 14.9 101550 85
2008-07-17 06:56:46 51°13.408 2°51.338 4.3 14 14.9 101550 85
2008-07-17 06:56:51 51°13.406 2°51.333 4.2 12 14.9 101550 85
2008-07-17 06:56:56 51°13.404 2°51.33 4.2 20 14.9 101560 85
2008-07-17 06:57:01 51°13.402 2°51.328 4 19 14.9 101560 85
2008-07-17 06:57:05 51°13.401 2°51.325 4 16 14.9 101550 85
2008-07-17 06:57:11 51°13.398 2°51.321 3.8 18 14.9 101550 85
2008-07-17 06:57:16 51°13.396 2°51.318 4.1 18 15 101560 85
2008-07-17 06:57:21 51°13.394 2°51.315 3.5 18 15 101560 85
2008-07-17 06:57:26 51°13.392 2°51.312 3.7 20 15 101560 85
2008-07-17 06:57:31 51°13.39 2°51.309 3.6 24 15 101560 85
2008-07-17 06:57:36 51°13.388 2°51.306 4.1 21 15 101560 85
2008-07-17 06:57:41 51°13.386 2°51.303 3.7 18 15 101560 85
2008-07-17 06:57:46 51°13.384 2°51.301 3.7 22 15 101550 85
2008-07-17 06:57:51 51°13.382 2°51.298 3.7 23 15 101550 85
2008-07-17 06:57:56 51°13.38 2°51.295 3.7 20 15 101550 85
2008-07-17 06:58:01 51°13.378 2°51.292 4.1 22 15 101550 85
2008-07-17 06:58:06 51°13.376 2°51.29 3.5 21 15 101560 85
2008-07-17 06:58:11 51°13.374 2°51.287 3.6 23 15 101560 85
2008-07-17 06:58:16 51°13.372 2°51.284 3.4 18 15 101550 85
2008-07-17 06:58:21 51°13.37 2°51.281 3.3 19 15 101550 85
2008-07-17 06:58:25 51°13.368 2°51.279 3.3 17 15 101560 85
2008-07-17 06:58:31 51°13.366 2°51.276 3.4 14 15 101560 85
2008-07-17 06:58:36 51°13.364 2°51.273 2.9 15 15 101560 85
2008-07-17 06:58:41 51°13.362 2°51.27 3.3 16 15 101560 85
2008-07-17 06:58:46 51°13.36 2°51.267 3.2 16 15 101560 85
2008-07-17 06:58:51 51°13.358 2°51.264 3.4 17 15 101560 85
2008-07-17 06:58:56 51°13.356 2°51.262 3.4 18 15 101560 85
2008-07-17 06:59:01 51°13.355 2°51.259 3.1 15 15 101560 85
2008-07-17 06:59:06 51°13.353 2°51.256 3 15 15 101550 85
2008-07-17 06:59:11 51°13.351 2°51.254 4.4 8 15 101550 85
2008-07-17 06:59:16 51°13.349 2°51.251 3.5 15 15 101560 85
2008-07-17 06:59:21 51°13.347 2°51.248 3.6 14 15 101560 85
2008-07-17 06:59:26 51°13.345 2°51.246 3.6 14 15 101560 85
2008-07-17 06:59:31 51°13.344 2°51.243 3.4 13 15 101560 85
2008-07-17 06:59:36 51°13.342 2°51.24 3.6 12 15 101560 85
2008-07-17 06:59:41 51°13.34 2°51.237 3.9 10 15 101560 85
2008-07-17 06:59:46 51°13.338 2°51.235 3.7 16 15 101560 85
2008-07-17 06:59:51 51°13.336 2°51.232 3.7 15 15 101560 85
2008-07-17 06:59:56 51°13.335 2°51.23 3.6 15 14.9 101550 85
2008-07-17 07:00:01 51°13.333 2°51.227 3.5 13 14.9 101550 85
2008-07-17 07:00:05 51°13.332 2°51.225 3.7 17 14.9 101550 85
2008-07-17 07:00:11 51°13.329 2°51.222 4 13 14.9 101550 85
2008-07-17 07:00:16 51°13.328 2°51.219 3.8 15 15 101560 85
2008-07-17 07:00:21 51°13.326 2°51.216 3.5 13 15 101560 85
2008-07-17 07:00:26 51°13.324 2°51.214 3.8 12 15 101550 85
2008-07-17 07:00:31 51°13.323 2°51.21 3.7 10 15 101550 85
2008-07-17 07:00:36 51°13.32 2°51.206 4 9 15 101550 85
2008-07-17 07:00:41 51°13.317 2°51.201 3.3 6 15 101550 85
2008-07-17 07:00:46 51°13.314 2°51.196 3.5 5 15 101550 86
2008-07-17 07:00:51 51°13.311 2°51.19 3.7 4 15 101550 86
2008-07-17 07:00:56 51°13.307 2°51.182 3.6 2 15 101560 86
2008-07-17 07:01:01 51°13.303 2°51.174 4.1 2 15 101560 86
2008-07-17 07:01:05 51°13.299 2°51.166 5.1 356 15 101560 85
2008-07-17 07:01:11 51°13.293 2°51.152 5.6 355 15 101560 85
2008-07-17 07:01:16 51°13.288 2°51.138 5.5 351 15 101550 85
2008-07-17 07:01:21 51°13.281 2°51.123 6.2 353 15 101550 85
2008-07-17 07:01:26 51°13.275 2°51.106 6.2 351 15 101550 85
2008-07-17 07:01:31 51°13.268 2°51.088 6.6 278 15 101550 85
2008-07-17 07:01:36 51°13.261 2°51.068 7.1 347 15 101550 85
2008-07-17 07:01:41 51°13.253 2°51.047 7.2 279 15 101550 85
2008-07-17 07:01:46 51°13.246 2°51.023 7.9 346 15 101540 85
2008-07-17 07:01:51 51°13.238 2°51.001 7.8 278 15 101540 85
2008-07-17 07:01:56 51°13.23 2°50.978 8.3 343 15 101540 85
2008-07-17 07:02:01 51°13.221 2°50.955 7.9 283 15 101540 85
2008-07-17 07:02:06 51°13.213 2°50.932 8.2 341 15 101540 85
2008-07-17 07:02:11 51°13.204 2°50.908 8 277 15 101540 85
2008-07-17 07:02:16 51°13.195 2°50.884 8 342 14.9 101540 85
2008-07-17 07:02:21 51°13.186 2°50.86 8.2 280 14.9 101540 85
2008-07-17 07:02:26 51°13.177 2°50.836 7.8 342 14.9 101540 85
2008-07-17 07:02:31 51°13.168 2°50.811 7.9 284 14.9 101540 85
2008-07-17 07:02:36 51°13.159 2°50.787 8.1 343 14.9 101540 85
2008-07-17 07:02:41 51°13.15 2°50.763 8.2 283 14.9 101540 85
2008-07-17 07:02:46 51°13.14 2°50.738 7.8 343 14.9 101540 84
2008-07-17 07:02:51 51°13.131 2°50.714 7.6 279 14.9 101540 84
2008-07-17 07:02:56 51°13.122 2°50.689 8 344 14.9 101550 84
2008-07-17 07:03:01 51°13.114 2°50.664 8 285 14.9 101550 84
2008-07-17 07:03:06 51°13.105 2°50.638 7.6 342 14.9 101540 84
2008-07-17 07:03:11 51°13.096 2°50.613 8 277 14.9 101540 84
2008-07-17 07:03:16 51°13.088 2°50.588 8.6 343 14.8 101550 84
2008-07-17 07:03:21 51°13.08 2°50.562 8.1 281 14.8 101550 84
2008-07-17 07:03:26 51°13.071 2°50.537 7.7 342 14.9 101540 84
2008-07-17 07:03:31 51°13.063 2°50.511 7.9 281 14.9 101540 84
2008-07-17 07:03:36 51°13.055 2°50.485 7.9 342 14.9 101550 84
2008-07-17 07:03:41 51°13.047 2°50.46 8 278 14.9 101550 84
2008-07-17 07:03:45 51°13.04 2°50.439 8 340 14.9 101540 84
2008-07-17 07:03:51 51°13.029 2°50.409 8.2 278 14.9 101540 84
2008-07-17 07:03:56 51°13.021 2°50.383 8.3 343 14.9 101540 84
2008-07-17 07:04:01 51°13.012 2°50.358 8.5 283 14.9 101540 84
2008-07-17 07:04:06 51°13.003 2°50.333 7.9 341 14.9 101540 84
2008-07-17 07:04:11 51°12.994 2°50.307 8.4 282 14.9 101540 84
2008-07-17 07:04:16 51°12.985 2°50.282 8.6 341 15 101540 84
2008-07-17 07:04:21 51°12.976 2°50.257 8.2 276 15 101540 84
2008-07-17 07:04:26 51°12.966 2°50.232 8.6 342 14.9 101540 84
2008-07-17 07:04:31 51°12.957 2°50.208 8.7 279 14.9 101540 84
2008-07-17 07:04:36 51°12.947 2°50.183 8.1 342 15 101540 84
2008-07-17 07:04:41 51°12.938 2°50.158 8.3 284 15 101540 84
2008-07-17 07:04:46 51°12.928 2°50.134 7.7 343 15 101540 84
2008-07-17 07:04:51 51°12.918 2°50.11 8.1 284 15 101540 84
2008-07-17 07:04:56 51°12.908 2°50.086 7.5 343 15 101540 84
2008-07-17 07:05:01 51°12.897 2°50.061 7.6 280 15 101540 84
2008-07-17 07:05:05 51°12.889 2°50.042 7.9 343 14.9 101540 83
2008-07-17 07:05:11 51°12.876 2°50.013 8.3 281 14.9 101540 83
2008-07-17 07:05:16 51°12.866 2°49.988 7 341 14.9 101540 83
2008-07-17 07:05:21 51°12.856 2°49.965 7.4 277 14.9 101540 83
2008-07-17 07:05:26 51°12.846 2°49.94 7.3 342 14.9 101540 83
2008-07-17 07:05:31 51°12.836 2°49.916 7.3 280 14.9 101540 83
2008-07-17 07:05:36 51°12.827 2°49.891 7.2 341 14.9 101540 83
2008-07-17 07:05:41 51°12.817 2°49.866 7.4 284 14.9 101540 83
2008-07-17 07:05:46 51°12.808 2°49.841 7.7 342 14.9 101540 83
2008-07-17 07:05:51 51°12.799 2°49.816 8 282 14.9 101540 83
2008-07-17 07:05:56 51°12.79 2°49.791 7.4 346 14.9 101540 83
2008-07-17 07:06:01 51°12.78 2°49.767 7.2 279 14.9 101540 83
2008-07-17 07:06:06 51°12.771 2°49.742 7.7 342 15 101540 83
2008-07-17 07:06:11 51°12.761 2°49.718 7.4 284 15 101540 83
2008-07-17 07:06:16 51°12.752 2°49.693 8 341 15 101540 83
2008-07-17 07:06:21 51°12.741 2°49.669 8 281 15 101540 83
2008-07-17 07:06:26 51°12.732 2°49.644 7.2 342 15 101540 82
2008-07-17 07:06:31 51°12.722 2°49.621 7.6 283 15 101540 82
2008-07-17 07:06:36 51°12.712 2°49.596 7.1 343 15 101540 83
2008-07-17 07:06:41 51°12.702 2°49.572 7.2 281 15 101540 83
2008-07-17 07:06:46 51°12.693 2°49.547 7.4 343 15 101540 82
2008-07-17 07:06:51 51°12.683 2°49.523 7.6 281 15 101540 82
2008-07-17 07:06:56 51°12.673 2°49.499 7 343 15 101540 83
2008-07-17 07:07:01 51°12.664 2°49.474 7.1 279 15 101540 83
2008-07-17 07:07:06 51°12.654 2°49.45 7.6 339 15 101540 83
2008-07-17 07:07:11 51°12.644 2°49.425 7.8 281 15 101540 83
2008-07-17 07:07:16 51°12.634 2°49.401 7.3 342 15 101540 83
2008-07-17 07:07:21 51°12.625 2°49.377 8 277 15 101540 83
2008-07-17 07:07:26 51°12.615 2°49.353 8.3 344 15 101540 83
2008-07-17 07:07:31 51°12.605 2°49.328 7.9 282 15 101540 83
2008-07-17 07:07:36 51°12.595 2°49.303 7.5 346 15 101540 83
2008-07-17 07:07:41 51°12.585 2°49.279 8 280 15 101540 83
2008-07-17 07:07:45 51°12.578 2°49.258 7.1 342 15 101540 82
2008-07-17 07:07:51 51°12.566 2°49.229 7.3 283 15 101540 82
2008-07-17 07:07:56 51°12.557 2°49.204 7.1 340 15 101540 82
2008-07-17 07:08:01 51°12.547 2°49.179 7.5 282 15 101540 82
2008-07-17 07:08:06 51°12.537 2°49.155 7.5 342 15.1 101540 82
2008-07-17 07:08:11 51°12.528 2°49.13 7.3 279 15.1 101540 82
2008-07-17 07:08:16 51°12.518 2°49.105 7.5 341 15 101540 82
2008-07-17 07:08:21 51°12.508 2°49.08 7.1 278 15 101540 82
2008-07-17 07:08:25 51°12.501 2°49.061 7.8 344 15 101540 82
2008-07-17 07:08:31 51°12.489 2°49.03 7.5 279 15 101540 82
2008-07-17 07:08:36 51°12.479 2°49.006 7.4 345 15 101540 82
2008-07-17 07:08:41 51°12.47 2°48.981 7.9 341 15 101540 82
2008-07-17 07:08:46 51°12.46 2°48.957 7.4 343 15.1 101540 82
2008-07-17 07:08:51 51°12.451 2°48.931 7.1 277 15.1 101540 82
2008-07-17 07:08:56 51°12.441 2°48.907 7.2 344 15.1 101540 82
2008-07-17 07:09:01 51°12.432 2°48.881 7.7 283 15.1 101540 82
2008-07-17 07:09:06 51°12.423 2°48.857 7.8 345 15.1 101540 83
2008-07-17 07:09:11 51°12.415 2°48.831 7.6 280 15.1 101540 83
2008-07-17 07:09:16 51°12.407 2°48.805 7.5 341 15.1 101540 83
2008-07-17 07:09:21 51°12.4 2°48.778 8.1 279 15.1 101540 83
2008-07-17 07:09:26 51°12.392 2°48.752 7.6 343 15.1 101540 83
2008-07-17 07:09:31 51°12.386 2°48.725 8.5 284 15.1 101540 83
2008-07-17 07:09:36 51°12.378 2°48.699 8.6 342 15.1 101540 82
2008-07-17 07:09:41 51°12.372 2°48.672 7.7 278 15.1 101540 82
2008-07-17 07:09:45 51°12.367 2°48.65 8 341 15.1 101540 82
2008-07-17 07:09:51 51°12.359 2°48.618 8.4 284 15.1 101540 82
2008-07-17 07:09:56 51°12.353 2°48.591 8.3 342 15.1 101540 83
2008-07-17 07:10:01 51°12.346 2°48.564 8.3 282 15.1 101540 83
2008-07-17 07:10:06 51°12.34 2°48.537 8.2 340 15.1 101540 82
2008-07-17 07:10:11 51°12.334 2°48.509 8.4 279 15.1 101540 82
2008-07-17 07:10:16 51°12.327 2°48.482 7.4 342 15.1 101540 82
2008-07-17 07:10:21 51°12.321 2°48.455 7.3 277 15.1 101540 82
2008-07-17 07:10:26 51°12.315 2°48.428 7.5 340 15.1 101540 82
2008-07-17 07:10:31 51°12.308 2°48.401 7.6 284 15.1 101540 82
2008-07-17 07:10:36 51°12.302 2°48.374 8.1 342 15.1 101540 82
2008-07-17 07:10:41 51°12.296 2°48.347 7.6 279 15.1 101540 82
2008-07-17 07:10:46 51°12.289 2°48.32 7.9 343 15.1 101540 82
2008-07-17 07:10:51 51°12.283 2°48.292 7.5 284 15.1 101540 82
2008-07-17 07:10:56 51°12.276 2°48.265 8.2 340 15.1 101540 82
2008-07-17 07:11:01 51°12.27 2°48.238 8.2 343 15.1 101540 82
2008-07-17 07:11:06 51°12.264 2°48.211 8.2 343 15.1 101550 82
2008-07-17 07:11:11 51°12.257 2°48.184 8.4 277 15.1 101550 82
2008-07-17 07:11:16 51°12.251 2°48.156 9.2 342 15.1 101540 83
2008-07-17 07:11:21 51°12.244 2°48.13 8.6 284 15.1 101540 83
2008-07-17 07:11:26 51°12.238 2°48.102 8.5 340 15.1 101540 83
2008-07-17 07:11:31 51°12.231 2°48.075 8.6 278 15.1 101540 83
2008-07-17 07:11:36 51°12.225 2°48.048 8.5 344 15.1 101540 83
2008-07-17 07:11:41 51°12.219 2°48.021 8.9 279 15.1 101540 83
2008-07-17 07:11:46 51°12.213 2°47.994 8.8 341 15.2 101540 83
2008-07-17 07:11:51 51°12.206 2°47.967 8.6 279 15.2 101540 83
2008-07-17 07:11:56 51°12.2 2°47.94 9 341 15.2 101540 83
2008-07-17 07:12:01 51°12.193 2°47.913 8.3 280 15.2 101540 83
2008-07-17 07:12:05 51°12.188 2°47.891 8.2 341 15.2 101540 83
2008-07-17 07:12:11 51°12.18 2°47.859 8.4 284 15.2 101540 83
2008-07-17 07:12:16 51°12.174 2°47.831 8.6 339 15.2 101550 83
2008-07-17 07:12:21 51°12.168 2°47.804 8.3 279 15.2 101550 83
2008-07-17 07:12:26 51°12.162 2°47.776 9.1 340 15.2 101540 83
2008-07-17 07:12:31 51°12.156 2°47.748 9 280 15.2 101540 83
2008-07-17 07:12:36 51°12.15 2°47.721 8.6 341 15.2 101540 83
2008-07-17 07:12:41 51°12.145 2°47.693 8.7 279 15.2 101540 83
2008-07-17 07:12:46 51°12.139 2°47.666 8.7 342 15.2 101540 83
2008-07-17 07:12:51 51°12.134 2°47.638 9.2 282 15.2 101540 83
2008-07-17 07:12:56 51°12.128 2°47.61 9.1 338 15.2 101540 83
2008-07-17 07:13:01 51°12.123 2°47.582 8.9 283 15.2 101540 83
2008-07-17 07:13:06 51°12.117 2°47.555 9.5 338 15.2 101540 83
2008-07-17 07:13:11 51°12.112 2°47.527 8.7 280 15.2 101540 83
2008-07-17 07:13:16 51°12.106 2°47.499 10.3 339 15.2 101540 83
2008-07-17 07:13:21 51°12.101 2°47.471 9.3 278 15.2 101540 83
2008-07-17 07:13:26 51°12.095 2°47.444 9.9 341 15.2 101540 83
2008-07-17 07:13:31 51°12.09 2°47.416 9.2 284 15.2 101540 83
2008-07-17 07:13:36 51°12.084 2°47.389 9.1 342 15.2 101540 83
2008-07-17 07:13:41 51°12.078 2°47.361 8.9 281 15.2 101540 83
2008-07-17 07:13:45 51°12.074 2°47.34 9 341 15.2 101540 83
2008-07-17 07:13:51 51°12.067 2°47.306 8.6 281 15.2 101540 83
2008-07-17 07:13:56 51°12.061 2°47.279 9 341 15.2 101540 83
2008-07-17 07:14:01 51°12.056 2°47.252 9.6 285 15.2 101540 83
2008-07-17 07:14:06 51°12.05 2°47.224 8.6 341 15.2 101540 83
2008-07-17 07:14:11 51°12.044 2°47.196 9.1 278 15.2 101540 83
2008-07-17 07:14:16 51°12.038 2°47.169 9.8 340 15.2 101540 83
2008-07-17 07:14:21 51°12.032 2°47.142 9.5 278 15.2 101540 83
2008-07-17 07:14:25 51°12.028 2°47.12 8.7 338 15.2 101540 83
2008-07-17 07:14:31 51°12.02 2°47.087 9 284 15.2 101540 83
2008-07-17 07:14:36 51°12.014 2°47.06 9.6 340 15.2 101540 83
2008-07-17 07:14:41 51°12.007 2°47.033 8.8 279 15.2 101540 83
2008-07-17 07:14:46 51°12 2°47.006 9.2 339 15.2 101540 83
2008-07-17 07:14:51 51°11.993 2°46.98 9 279 15.2 101540 83
2008-07-17 07:14:56 51°11.987 2°46.953 9 342 15.2 101540 83
2008-07-17 07:15:01 51°11.98 2°46.926 8.5 279 15.2 101540 83
2008-07-17 07:15:06 51°11.973 2°46.899 8.2 342 15.2 101540 83
2008-07-17 07:15:11 51°11.967 2°46.872 8.5 283 15.2 101540 83
2008-07-17 07:15:16 51°11.96 2°46.845 8.2 344 15.2 101540 83
2008-07-17 07:15:21 51°11.954 2°46.818 8.1 281 15.2 101540 83
2008-07-17 07:15:26 51°11.947 2°46.792 8.1 343 15.2 101540 83
2008-07-17 07:15:31 51°11.941 2°46.764 8.7 278 15.2 101540 83
2008-07-17 07:15:36 51°11.934 2°46.738 9 345 15.2 101540 83
2008-07-17 07:15:41 51°11.927 2°46.711 8.5 281 15.2 101540 83
2008-07-17 07:15:46 51°11.92 2°46.684 8.6 344 15.2 101540 83
2008-07-17 07:15:51 51°11.913 2°46.657 9 281 15.2 101540 83
2008-07-17 07:15:56 51°11.907 2°46.63 8.8 341 15.2 101540 83
2008-07-17 07:16:01 51°11.9 2°46.603 9.7 279 15.2 101540 83
2008-07-17 07:16:05 51°11.896 2°46.581 8.9 339 15.2 101540 82
2008-07-17 07:16:11 51°11.888 2°46.549 9.4 281 15.2 101540 82
2008-07-17 07:16:16 51°11.883 2°46.521 8.8 342 15.2 101540 83
2008-07-17 07:16:21 51°11.876 2°46.495 8.8 279 15.2 101540 83
2008-07-17 07:16:26 51°11.87 2°46.467 8.7 342 15.2 101540 83
2008-07-17 07:16:30 51°11.865 2°46.446 9 279 15.2 101540 83
2008-07-17 07:16:36 51°11.858 2°46.413 9.2 342 15.2 101540 82
2008-07-17 07:16:41 51°11.852 2°46.386 9.3 282 15.2 101540 82
2008-07-17 07:16:46 51°11.846 2°46.359 9.5 343 15.2 101540 82
2008-07-17 07:16:51 51°11.84 2°46.332 10.1 283 15.2 101540 82
2008-07-17 07:16:56 51°11.834 2°46.304 9.6 343 15.2 101540 82
2008-07-17 07:17:01 51°11.828 2°46.277 9.7 280 15.2 101540 82
2008-07-17 07:17:06 51°11.822 2°46.25 9 341 15.2 101540 82
2008-07-17 07:17:11 51°11.817 2°46.222 9.5 279 15.2 101540 82
2008-07-17 07:17:16 51°11.811 2°46.195 10 340 15.2 101530 82
2008-07-17 07:17:21 51°11.805 2°46.168 10 282 15.2 101530 82
2008-07-17 07:17:25 51°11.8 2°46.146 10 340 15.2 101540 82
2008-07-17 07:17:31 51°11.793 2°46.113 9.8 286 15.2 101540 82
2008-07-17 07:17:36 51°11.787 2°46.086 9.4 341 15.2 101540 82
2008-07-17 07:17:41 51°11.781 2°46.059 9.6 342 15.2 101540 82
2008-07-17 07:17:46 51°11.776 2°46.031 8.9 341 15.2 101540 81
2008-07-17 07:17:51 51°11.769 2°46.004 9.4 281 15.2 101540 81
2008-07-17 07:17:56 51°11.764 2°45.977 10.2 338 15.2 101540 81
2008-07-17 07:18:01 51°11.758 2°45.949 10.4 278 15.2 101540 81
2008-07-17 07:18:06 51°11.752 2°45.922 9.9 339 15.2 101540 81
2008-07-17 07:18:11 51°11.746 2°45.894 10.1 278 15.2 101540 81
2008-07-17 07:18:16 51°11.74 2°45.867 10 339 15.2 101540 81
2008-07-17 07:18:21 51°11.735 2°45.84 9.9 278 15.2 101540 81
2008-07-17 07:18:26 51°11.729 2°45.812 9.4 340 15.2 101540 81
2008-07-17 07:18:31 51°11.723 2°45.785 10 278 15.2 101540 81
2008-07-17 07:18:36 51°11.717 2°45.758 9.9 340 15.2 101540 81
2008-07-17 07:18:41 51°11.711 2°45.73 9.5 278 15.2 101540 81
2008-07-17 07:18:45 51°11.707 2°45.708 9.2 341 15.2 101540 81
2008-07-17 07:18:51 51°11.701 2°45.675 9.2 284 15.2 101540 81
2008-07-17 07:18:56 51°11.695 2°45.647 9 341 15.2 101540 81
2008-07-17 07:19:01 51°11.69 2°45.619 9.3 277 15.2 101540 81
2008-07-17 07:19:06 51°11.685 2°45.591 8.8 339 15.2 101540 81
2008-07-17 07:19:11 51°11.68 2°45.563 9.2 282 15.2 101540 81
2008-07-17 07:19:16 51°11.675 2°45.536 9.2 342 15.2 101540 80
2008-07-17 07:19:21 51°11.67 2°45.508 8.9 284 15.2 101540 80
2008-07-17 07:19:26 51°11.665 2°45.48 8.8 341 15.2 101540 81
2008-07-17 07:19:31 51°11.659 2°45.453 8.4 278 15.2 101540 81
2008-07-17 07:19:36 51°11.653 2°45.426 8.2 342 15.2 101540 80
2008-07-17 07:19:41 51°11.646 2°45.399 8.9 344 15.2 101540 80
2008-07-17 07:19:46 51°11.64 2°45.372 9.2 344 15.2 101540 80
2008-07-17 07:19:51 51°11.634 2°45.344 9.4 277 15.2 101540 80
2008-07-17 07:19:56 51°11.627 2°45.317 9.4 343 15.2 101550 80
2008-07-17 07:20:01 51°11.621 2°45.29 9.6 282 15.2 101550 80
2008-07-17 07:20:06 51°11.614 2°45.263 9.1 339 15.2 101540 81
2008-07-17 07:20:11 51°11.607 2°45.236 9.8 281 15.2 101540 81
2008-07-17 07:20:16 51°11.601 2°45.209 10.2 341 15.2 101540 81
2008-07-17 07:20:21 51°11.594 2°45.182 9.7 279 15.2 101540 81
2008-07-17 07:20:26 51°11.587 2°45.155 9.9 339 15.3 101540 81
2008-07-17 07:20:31 51°11.581 2°45.128 9.5 283 15.3 101540 81
2008-07-17 07:20:36 51°11.574 2°45.101 10 338 15.3 101540 81
2008-07-17 07:20:41 51°11.568 2°45.074 9.1 280 15.3 101540 81
2008-07-17 07:20:46 51°11.56 2°45.047 9.7 341 15.3 101540 81
2008-07-17 07:20:51 51°11.554 2°45.02 9.4 279 15.3 101540 81
2008-07-17 07:20:56 51°11.547 2°44.993 9.9 340 15.3 101550 81
2008-07-17 07:21:01 51°11.54 2°44.966 9.2 283 15.3 101550 81
2008-07-17 07:21:06 51°11.533 2°44.939 9.9 342 15.3 101550 80
2008-07-17 07:21:11 51°11.526 2°44.912 9.9 277 15.3 101550 80
2008-07-17 07:21:16 51°11.52 2°44.885 10 340 15.3 101540 81
2008-07-17 07:21:21 51°11.513 2°44.857 9.6 277 15.3 101540 81
2008-07-17 07:21:26 51°11.506 2°44.83 9.8 341 15.3 101550 80
2008-07-17 07:21:31 51°11.499 2°44.803 9.4 283 15.3 101550 80
2008-07-17 07:21:36 51°11.493 2°44.776 9.6 338 15.3 101550 81
2008-07-17 07:21:41 51°11.486 2°44.749 10.9 280 15.3 101550 81
2008-07-17 07:21:46 51°11.479 2°44.722 9.5 342 15.3 101540 81
2008-07-17 07:21:51 51°11.473 2°44.695 10.6 283 15.3 101540 81
2008-07-17 07:21:56 51°11.466 2°44.668 9.4 342 15.3 101540 81
2008-07-17 07:22:01 51°11.459 2°44.641 10.1 279 15.3 101540 81
2008-07-17 07:22:06 51°11.452 2°44.614 9.2 340 15.3 101550 81
2008-07-17 07:22:11 51°11.445 2°44.587 9 277 15.3 101550 81
2008-07-17 07:22:16 51°11.439 2°44.56 9.6 340 15.3 101540 81
2008-07-17 07:22:21 51°11.432 2°44.533 9.6 339 15.3 101540 81
2008-07-17 07:22:26 51°11.425 2°44.506 9 340 15.3 101540 81
2008-07-17 07:22:31 51°11.418 2°44.479 9.7 285 15.3 101540 81
2008-07-17 07:22:36 51°11.411 2°44.452 9.7 339 15.3 101550 81
2008-07-17 07:22:41 51°11.405 2°44.425 9.2 283 15.3 101550 81
2008-07-17 07:22:46 51°11.398 2°44.398 9.5 339 15.3 101540 81
2008-07-17 07:22:51 51°11.391 2°44.371 9.4 278 15.3 101540 81
2008-07-17 07:22:56 51°11.385 2°44.344 9.7 338 15.3 101540 81
2008-07-17 07:23:01 51°11.378 2°44.317 10 279 15.3 101540 81
2008-07-17 07:23:06 51°11.371 2°44.29 9.9 338 15.3 101550 81
2008-07-17 07:23:11 51°11.365 2°44.263 10.1 276 15.3 101550 81
2008-07-17 07:23:16 51°11.359 2°44.236 9.8 338 15.3 101550 82
2008-07-17 07:23:21 51°11.352 2°44.209 9.4 280 15.3 101550 82
2008-07-17 07:23:26 51°11.346 2°44.181 10.5 339 15.3 101550 81
2008-07-17 07:23:31 51°11.339 2°44.154 9.7 279 15.3 101550 81
2008-07-17 07:23:36 51°11.333 2°44.127 10.2 341 15.3 101550 81
2008-07-17 07:23:41 51°11.325 2°44.101 9.6 283 15.3 101550 81
2008-07-17 07:23:46 51°11.318 2°44.074 9.6 341 15.3 101550 81
2008-07-17 07:23:51 51°11.311 2°44.048 9.8 284 15.3 101550 81
2008-07-17 07:23:56 51°11.304 2°44.021 9.4 341 15.3 101540 81
2008-07-17 07:24:01 51°11.296 2°43.995 9.9 279 15.3 101540 81
2008-07-17 07:24:05 51°11.291 2°43.973 9.9 341 15.3 101540 81
2008-07-17 07:24:11 51°11.281 2°43.941 9.6 284 15.3 101540 81
2008-07-17 07:24:16 51°11.274 2°43.915 8.8 340 15.3 101540 81
2008-07-17 07:24:21 51°11.267 2°43.889 9.4 342 15.3 101540 81
2008-07-17 07:24:26 51°11.259 2°43.862 8.9 341 15.3 101540 81
2008-07-17 07:24:31 51°11.252 2°43.836 9 285 15.3 101540 81
2008-07-17 07:24:36 51°11.244 2°43.809 8.7 340 15.3 101550 81
2008-07-17 07:24:41 51°11.237 2°43.783 9.2 278 15.3 101550 81
2008-07-17 07:24:46 51°11.23 2°43.756 9.1 339 15.3 101550 81
2008-07-17 07:24:51 51°11.223 2°43.73 9.8 284 15.3 101550 81
2008-07-17 07:24:56 51°11.215 2°43.703 9.7 341 15.3 101550 81
2008-07-17 07:25:01 51°11.208 2°43.677 9.3 285 15.3 101550 81
2008-07-17 07:25:06 51°11.201 2°43.65 9.3 342 15.3 101550 81
2008-07-17 07:25:11 51°11.194 2°43.623 9.1 280 15.3 101550 81
2008-07-17 07:25:16 51°11.187 2°43.597 8.4 342 15.3 101550 81
2008-07-17 07:25:21 51°11.18 2°43.57 9.1 283 15.3 101550 81
2008-07-17 07:25:26 51°11.173 2°43.544 9.3 342 15.3 101550 81
2008-07-17 07:25:31 51°11.165 2°43.517 10.5 279 15.3 101550 81
2008-07-17 07:25:36 51°11.159 2°43.491 10 340 15.3 101550 81
2008-07-17 07:25:41 51°11.151 2°43.464 10.1 283 15.3 101550 81
2008-07-17 07:25:46 51°11.144 2°43.438 9.2 341 15.3 101550 81
2008-07-17 07:25:51 51°11.137 2°43.411 9.2 279 15.3 101550 81
2008-07-17 07:25:56 51°11.13 2°43.385 10.3 341 15.3 101550 82
2008-07-17 07:26:01 51°11.123 2°43.358 9.7 278 15.3 101550 82
2008-07-17 07:26:05 51°11.118 2°43.337 9.4 343 15.3 101550 81
2008-07-17 07:26:11 51°11.111 2°43.304 10.1 278 15.3 101550 81
2008-07-17 07:26:16 51°11.106 2°43.278 10.5 340 15.3 101550 82
2008-07-17 07:26:21 51°11.101 2°43.252 9.4 282 15.3 101550 82
2008-07-17 07:26:26 51°11.097 2°43.227 9.9 341 15.3 101550 81
2008-07-17 07:26:31 51°11.092 2°43.201 10.3 279 15.3 101550 81
2008-07-17 07:26:36 51°11.089 2°43.176 4.4 341 15.3 101550 81
2008-07-17 07:26:41 51°11.085 2°43.152 10.5 281 15.3 101550 81
2008-07-17 07:26:46 51°11.082 2°43.128 10.1 341 15.3 101550 82
2008-07-17 07:26:51 51°11.078 2°43.105 10 280 15.3 101550 82
2008-07-17 07:26:56 51°11.075 2°43.084 9.3 344 15.3 101540 81
2008-07-17 07:27:01 51°11.072 2°43.063 8.3 342 15.3 101540 81
2008-07-17 07:27:06 51°11.069 2°43.044 9.7 342 15.3 101540 82
2008-07-17 07:27:11 51°11.066 2°43.025 8.3 278 15.3 101540 82
2008-07-17 07:27:16 51°11.064 2°43.007 8.8 342 15.3 101550 81
2008-07-17 07:27:21 51°11.061 2°42.989 8.5 281 15.3 101550 81
2008-07-17 07:27:26 51°11.06 2°42.972 8.7 335 15.4 101560 82
2008-07-17 07:27:31 51°11.058 2°42.956 8.8 278 15.4 101560 82
2008-07-17 07:27:36 51°11.058 2°42.94 8.6 335 15.4 101560 82
2008-07-17 07:27:41 51°11.058 2°42.925 8.4 282 15.4 101560 82
2008-07-17 07:27:46 51°11.057 2°42.91 7.6 336 15.4 101560 82
2008-07-17 07:27:51 51°11.057 2°42.896 7.3 279 15.4 101560 82
2008-07-17 07:27:56 51°11.057 2°42.881 7.3 335 15.4 101560 82
2008-07-17 07:28:01 51°11.057 2°42.868 7.4 279 15.4 101560 82
2008-07-17 07:28:06 51°11.057 2°42.854 7.4 338 15.4 101560 81
2008-07-17 07:28:11 51°11.057 2°42.841 6.8 278 15.4 101560 81
2008-07-17 07:28:16 51°11.057 2°42.827 6.8 336 15.4 101560 81
2008-07-17 07:28:21 51°11.057 2°42.814 7.5 283 15.4 101560 81
2008-07-17 07:28:25 51°11.057 2°42.804 7.2 335 15.4 101560 81
2008-07-17 07:28:31 51°11.057 2°42.789 6.7 283 15.4 101560 81
2008-07-17 07:28:36 51°11.058 2°42.776 6.7 335 15.4 101560 81
2008-07-17 07:28:41 51°11.058 2°42.764 6.6 278 15.4 101560 81
2008-07-17 07:28:46 51°11.058 2°42.752 6.5 333 15.4 101560 81
2008-07-17 07:28:51 51°11.059 2°42.74 7.2 284 15.4 101560 81
2008-07-17 07:28:56 51°11.059 2°42.728 6.7 335 15.4 101560 82
2008-07-17 07:29:01 51°11.06 2°42.716 7 284 15.4 101560 82
2008-07-17 07:29:06 51°11.06 2°42.704 6.7 335 15.4 101560 82
2008-07-17 07:29:11 51°11.061 2°42.692 6.5 278 15.4 101560 82
2008-07-17 07:29:16 51°11.062 2°42.68 6 332 15.4 101560 81
2008-07-17 07:29:21 51°11.063 2°42.669 6.7 285 15.4 101560 81
2008-07-17 07:29:26 51°11.063 2°42.657 7.1 334 15.4 101560 81
2008-07-17 07:29:31 51°11.064 2°42.645 7.4 285 15.4 101560 81
2008-07-17 07:29:36 51°11.065 2°42.632 8.1 335 15.4 101560 82
2008-07-17 07:29:41 51°11.066 2°42.62 7.8 281 15.4 101560 82
2008-07-17 07:29:46 51°11.066 2°42.608 7.6 337 15.4 101560 82
2008-07-17 07:29:51 51°11.067 2°42.595 7.7 283 15.4 101560 82
2008-07-17 07:29:56 51°11.068 2°42.583 7 337 15.4 101560 82
2008-07-17 07:30:01 51°11.069 2°42.57 7.8 279 15.4 101560 82
2008-07-17 07:30:05 51°11.069 2°42.56 8.4 337 15.5 101560 82
2008-07-17 07:30:11 51°11.07 2°42.545 7.2 279 15.5 101560 82
2008-07-17 07:30:16 51°11.071 2°42.533 8.2 337 15.5 101560 82
2008-07-17 07:30:21 51°11.071 2°42.52 7.6 279 15.5 101560 82
2008-07-17 07:30:26 51°11.072 2°42.507 7.8 339 15.5 101560 82
2008-07-17 07:30:31 51°11.073 2°42.495 7.1 284 15.5 101560 82
2008-07-17 07:30:36 51°11.073 2°42.482 7.6 339 15.5 101560 82
2008-07-17 07:30:41 51°11.074 2°42.469 7.5 284 15.5 101560 82
2008-07-17 07:30:46 51°11.074 2°42.456 7 340 15.5 101560 81
2008-07-17 07:30:51 51°11.075 2°42.443 7.4 280 15.5 101560 81
2008-07-17 07:30:56 51°11.075 2°42.431 7.5 341 15.4 101560 81
2008-07-17 07:31:01 51°11.075 2°42.418 7.7 337 15.4 101560 81
2008-07-17 07:31:06 51°11.076 2°42.405 7.9 337 15.4 101560 81
2008-07-17 07:31:11 51°11.076 2°42.392 8.1 280 15.4 101560 81
2008-07-17 07:31:16 51°11.076 2°42.379 7.8 340 15.4 101560 81
2008-07-17 07:31:21 51°11.077 2°42.366 8.2 282 15.4 101560 81
2008-07-17 07:31:26 51°11.077 2°42.353 7.9 334 15.4 101560 81
2008-07-17 07:31:31 51°11.077 2°42.34 8.7 280 15.4 101560 81
2008-07-17 07:31:36 51°11.077 2°42.327 8.1 335 15.4 101560 81
2008-07-17 07:31:41 51°11.077 2°42.315 7.9 281 15.4 101560 81
2008-07-17 07:31:46 51°11.078 2°42.304 7.2 333 15.4 101560 82
2008-07-17 07:31:51 51°11.078 2°42.293 7.6 283 15.4 101560 82
2008-07-17 07:31:56 51°11.078 2°42.282 6.8 333 15.4 101560 81
2008-07-17 07:32:01 51°11.078 2°42.271 7.2 280 15.4 101560 81
2008-07-17 07:32:05 51°11.077 2°42.263 7.2 333 15.4 101560 81
2008-07-17 07:32:11 51°11.077 2°42.252 6 283 15.4 101560 81
2008-07-17 07:32:16 51°11.077 2°42.242 6.7 337 15.4 101560 81
2008-07-17 07:32:21 51°11.076 2°42.233 6.1 283 15.4 101560 81
2008-07-17 07:32:25 51°11.076 2°42.227 6.7 336 15.3 101560 81
2008-07-17 07:32:31 51°11.075 2°42.216 6.4 283 15.3 101560 81
2008-07-17 07:32:36 51°11.074 2°42.208 5.9 340 15.3 101560 81
2008-07-17 07:32:41 51°11.074 2°42.201 5.6 278 15.3 101560 81
2008-07-17 07:32:46 51°11.073 2°42.194 5.4 343 15.3 101560 80
2008-07-17 07:32:51 51°11.072 2°42.188 5.6 282 15.3 101560 80
2008-07-17 07:32:56 51°11.071 2°42.182 5.4 346 15.3 101560 81
2008-07-17 07:33:01 51°11.07 2°42.177 2.6 278 15.3 101560 81
2008-07-17 07:33:05 51°11.069 2°42.173 5.3 349 15.3 101560 81
2008-07-17 07:33:11 51°11.067 2°42.168 5 348 15.3 101560 81
2008-07-17 07:33:16 51°11.067 2°42.164 4.7 348 15.3 101560 80
2008-07-17 07:33:21 51°11.065 2°42.161 4.2 348 15.3 101560 80
2008-07-17 07:33:26 51°11.064 2°42.158 4 346 15.3 101570 80
2008-07-17 07:33:31 51°11.063 2°42.156 4.2 350 15.3 101570 80
2008-07-17 07:33:36 51°11.062 2°42.153 4.4 351 15.3 101560 80
2008-07-17 07:33:41 51°11.061 2°42.151 4.2 349 15.3 101560 80
2008-07-17 07:33:46 51°11.06 2°42.149 5 353 15.3 101560 81
2008-07-17 07:33:51 51°11.059 2°42.147 4.7 355 15.3 101560 81
2008-07-17 07:33:56 51°11.058 2°42.145 5 356 15.3 101560 81
2008-07-17 07:34:01 51°11.057 2°42.143 5 360 15.3 101560 81
2008-07-17 07:34:06 51°11.056 2°42.141 5.3 359 15.3 101560 81
2008-07-17 07:34:11 51°11.055 2°42.139 5.4 1 15.3 101560 81
2008-07-17 07:34:16 51°11.053 2°42.137 4.8 4 15.3 101560 81
2008-07-17 07:34:21 51°11.052 2°42.135 4.9 3 15.3 101560 81
2008-07-17 07:34:26 51°11.051 2°42.133 4.9 3 15.3 101560 81
2008-07-17 07:34:31 51°11.05 2°42.131 4.8 3 15.3 101560 81
2008-07-17 07:34:36 51°11.049 2°42.129 4.2 4 15.3 101560 80
2008-07-17 07:34:41 51°11.047 2°42.127 4.6 3 15.3 101560 80
2008-07-17 07:34:46 51°11.046 2°42.125 4.5 5 15.3 101560 80
2008-07-17 07:34:51 51°11.045 2°42.123 4.7 4 15.3 101560 80
2008-07-17 07:34:56 51°11.044 2°42.122 5.2 359 15.3 101560 80
2008-07-17 07:35:01 51°11.043 2°42.12 4.7 4 15.3 101560 80
2008-07-17 07:35:05 51°11.042 2°42.119 3.6 5 15.3 101560 80
2008-07-17 07:35:11 51°11.04 2°42.117 4.1 7 15.3 101560 80
2008-07-17 07:35:15 51°11.039 2°42.115 5 8 15.3 101560 80
2008-07-17 07:35:21 51°11.038 2°42.113 5 7 15.3 101560 80
2008-07-17 07:35:26 51°11.036 2°42.112 4.9 11 15.3 101560 80
2008-07-17 07:35:31 51°11.035 2°42.11 5.3 9 15.3 101560 80
2008-07-17 07:35:36 51°11.034 2°42.109 5.2 11 15.3 101560 80
2008-07-17 07:35:41 51°11.033 2°42.107 4.8 8 15.3 101560 80
2008-07-17 07:35:46 51°11.032 2°42.106 4.6 10 15.3 101560 80
2008-07-17 07:35:51 51°11.03 2°42.104 5.4 8 15.3 101560 80
2008-07-17 07:35:56 51°11.029 2°42.103 5.4 12 15.3 101560 81
2008-07-17 07:36:01 51°11.028 2°42.102 5 12 15.3 101560 81
2008-07-17 07:36:06 51°11.026 2°42.1 5.4 9 15.3 101560 81
2008-07-17 07:36:11 51°11.025 2°42.099 5.9 9 15.3 101560 81
2008-07-17 07:36:16 51°11.024 2°42.097 4.5 9 15.4 101560 81
2008-07-17 07:36:21 51°11.023 2°42.096 5.2 9 15.4 101560 81
2008-07-17 07:36:26 51°11.022 2°42.095 5.5 11 15.4 101560 81
2008-07-17 07:36:31 51°11.02 2°42.093 4.7 9 15.4 101560 81
2008-07-17 07:36:36 51°11.019 2°42.092 4.3 9 15.4 101560 82
2008-07-17 07:36:41 51°11.018 2°42.09 4.7 9 15.4 101560 82
2008-07-17 07:36:46 51°11.017 2°42.089 4.7 9 15.4 101560 81
2008-07-17 07:36:51 51°11.016 2°42.088 5.4 9 15.4 101560 81
2008-07-17 07:36:56 51°11.014 2°42.086 5.1 7 15.4 101560 82
2008-07-17 07:37:01 51°11.013 2°42.085 5.8 11 15.4 101560 82
2008-07-17 07:37:05 51°11.012 2°42.084 5.8 8 15.4 101560 82
2008-07-17 07:37:11 51°11.01 2°42.082 6 10 15.4 101560 82
2008-07-17 07:37:16 51°11.008 2°42.08 6 11 15.5 101560 82
2008-07-17 07:37:21 51°11.006 2°42.077 5.7 11 15.5 101560 82
2008-07-17 07:37:25 51°11.004 2°42.075 4.9 13 15.5 101560 82
2008-07-17 07:37:31 51°11.001 2°42.073 4.7 14 15.5 101560 82
2008-07-17 07:37:36 51°10.998 2°42.07 4.5 14 15.4 101560 81
2008-07-17 07:37:41 51°10.995 2°42.068 4.2 13 15.4 101560 81
2008-07-17 07:37:46 51°10.991 2°42.065 4.6 12 15.4 101560 81
2008-07-17 07:37:51 51°10.986 2°42.061 4.7 6 15.4 101560 81
2008-07-17 07:37:56 51°10.982 2°42.057 4.4 7 15.4 101560 81
2008-07-17 07:38:01 51°10.976 2°42.053 4.1 4 15.4 101560 81
2008-07-17 07:38:06 51°10.971 2°42.048 4.9 1 15.4 101560 80
2008-07-17 07:38:11 51°10.965 2°42.042 5 -999 15.4 101560 80
2008-07-17 07:38:16 51°10.959 2°42.036 5.6 358 15.4 101560 81
2008-07-17 07:38:21 51°10.952 2°42.029 5.4 -999 15.4 101560 81
2008-07-17 07:38:26 51°10.946 2°42.021 5.3 357 15.3 101560 81
2008-07-17 07:38:31 51°10.94 2°42.012 5.4 357 15.3 101560 81
2008-07-17 07:38:36 51°10.934 2°42.003 6.3 356 15.3 101560 81
2008-07-17 07:38:41 51°10.927 2°41.994 6.8 358 15.3 101560 81
2008-07-17 07:38:46 51°10.92 2°41.983 6.3 357 15.3 101560 81
2008-07-17 07:38:51 51°10.912 2°41.972 6.8 358 15.3 101560 81
2008-07-17 07:38:56 51°10.905 2°41.96 6.3 358 15.3 101560 81
2008-07-17 07:39:01 51°10.896 2°41.948 6.3 356 15.3 101560 81
2008-07-17 07:39:06 51°10.888 2°41.935 6.2 358 15.4 101560 81
2008-07-17 07:39:11 51°10.879 2°41.921 6.8 -999 15.4 101560 81
2008-07-17 07:39:16 51°10.87 2°41.907 7.9 352 15.4 101560 81
2008-07-17 07:39:21 51°10.861 2°41.893 7.2 279 15.4 101560 81
2008-07-17 07:39:26 51°10.852 2°41.878 7.4 351 15.4 101560 82
2008-07-17 07:39:31 51°10.843 2°41.863 7.7 352 15.4 101560 82
2008-07-17 07:39:36 51°10.834 2°41.847 7.6 351 15.4 101560 82
2008-07-17 07:39:41 51°10.825 2°41.832 7.6 278 15.4 101560 82
2008-07-17 07:39:46 51°10.816 2°41.816 9 350 15.4 101560 82
2008-07-17 07:39:51 51°10.807 2°41.8 9 352 15.4 101560 82
2008-07-17 07:39:56 51°10.797 2°41.785 9.6 351 15.4 101560 82
2008-07-17 07:40:01 51°10.788 2°41.769 9.3 350 15.4 101560 82
2008-07-17 07:40:06 51°10.779 2°41.753 9 350 15.4 101560 82
2008-07-17 07:40:11 51°10.77 2°41.737 8.8 352 15.4 101560 82
2008-07-17 07:40:16 51°10.76 2°41.721 9.3 350 15.4 101550 82
2008-07-17 07:40:21 51°10.751 2°41.704 9 351 15.4 101550 82
2008-07-17 07:40:26 51°10.742 2°41.688 9.4 350 15.4 101550 81
2008-07-17 07:40:31 51°10.732 2°41.672 9 348 15.4 101550 81
2008-07-17 07:40:36 51°10.723 2°41.656 8.1 351 15.4 101550 81
2008-07-17 07:40:41 51°10.713 2°41.64 8.1 349 15.4 101550 81
2008-07-17 07:40:46 51°10.704 2°41.623 8 350 15.4 101550 81
2008-07-17 07:40:51 51°10.695 2°41.607 8.3 278 15.4 101550 81
2008-07-17 07:40:56 51°10.685 2°41.59 7.5 349 15.4 101550 81
2008-07-17 07:41:01 51°10.676 2°41.574 7.5 349 15.4 101550 81
2008-07-17 07:41:06 51°10.667 2°41.558 8.1 348 15.4 101550 81
2008-07-17 07:41:11 51°10.657 2°41.541 9.1 -999 15.4 101550 81
2008-07-17 07:41:16 51°10.648 2°41.525 8.9 349 15.4 101550 81
2008-07-17 07:41:21 51°10.639 2°41.508 8.6 278 15.4 101550 81
2008-07-17 07:41:25 51°10.631 2°41.495 9.3 351 15.4 101550 81
2008-07-17 07:41:31 51°10.62 2°41.475 8.6 345 15.4 101550 81
2008-07-17 07:41:36 51°10.611 2°41.458 8.5 347 15.4 101560 81
2008-07-17 07:41:41 51°10.602 2°41.442 8.8 277 15.4 101560 81
2008-07-17 07:41:46 51°10.593 2°41.425 9.1 346 15.4 101550 81
2008-07-17 07:41:51 51°10.583 2°41.408 8.5 278 15.4 101550 81
2008-07-17 07:41:56 51°10.574 2°41.392 8.9 351 15.4 101550 81
2008-07-17 07:42:01 51°10.565 2°41.375 8.2 349 15.4 101550 81
2008-07-17 07:42:06 51°10.555 2°41.359 8.3 350 15.4 101550 81
2008-07-17 07:42:11 51°10.546 2°41.342 8 -999 15.4 101550 81
2008-07-17 07:42:16 51°10.537 2°41.326 8.9 347 15.4 101560 81
2008-07-17 07:42:21 51°10.527 2°41.31 8.6 348 15.4 101560 81
2008-07-17 07:42:26 51°10.518 2°41.293 9 346 15.4 101550 81
2008-07-17 07:42:31 51°10.508 2°41.277 8.5 283 15.4 101550 81
2008-07-17 07:42:36 51°10.499 2°41.26 9 347 15.4 101560 81
2008-07-17 07:42:41 51°10.489 2°41.244 8.7 279 15.4 101560 81
2008-07-17 07:42:46 51°10.48 2°41.227 8.6 346 15.4 101550 81
2008-07-17 07:42:51 51°10.47 2°41.211 8.9 280 15.4 101550 81
2008-07-17 07:42:56 51°10.461 2°41.194 8.2 345 15.4 101550 80
2008-07-17 07:43:01 51°10.452 2°41.178 8.7 278 15.4 101550 80
2008-07-17 07:43:06 51°10.442 2°41.162 8.5 349 15.3 101550 80
2008-07-17 07:43:11 51°10.433 2°41.145 8.2 283 15.3 101550 80
2008-07-17 07:43:16 51°10.424 2°41.129 8.3 348 15.3 101550 79
2008-07-17 07:43:21 51°10.415 2°41.112 7.9 282 15.3 101550 79
2008-07-17 07:43:26 51°10.406 2°41.094 8.4 343 15.3 101560 79
2008-07-17 07:43:31 51°10.397 2°41.078 8 282 15.3 101560 79
2008-07-17 07:43:36 51°10.388 2°41.06 7.5 346 15.3 101560 79
2008-07-17 07:43:41 51°10.38 2°41.043 7.8 281 15.3 101560 79
2008-07-17 07:43:46 51°10.371 2°41.025 7.9 345 15.4 101560 79
2008-07-17 07:43:51 51°10.362 2°41.007 8.7 346 15.4 101560 79
2008-07-17 07:43:56 51°10.354 2°40.99 7.8 346 15.3 101560 80
2008-07-17 07:44:01 51°10.345 2°40.972 7.8 282 15.3 101560 80
2008-07-17 07:44:05 51°10.338 2°40.959 8.4 346 15.3 101560 79
2008-07-17 07:44:11 51°10.328 2°40.937 7.9 347 15.3 101560 79
2008-07-17 07:44:16 51°10.32 2°40.92 7.9 345 15.3 101550 79
2008-07-17 07:44:21 51°10.312 2°40.902 7.3 278 15.3 101550 79
2008-07-17 07:44:26 51°10.303 2°40.884 8.4 344 15.3 101560 79
2008-07-17 07:44:31 51°10.295 2°40.866 8.8 281 15.3 101560 79
2008-07-17 07:44:36 51°10.287 2°40.848 7.6 343 15.3 101550 79
2008-07-17 07:44:41 51°10.279 2°40.83 7.7 343 15.3 101550 79
2008-07-17 07:44:46 51°10.271 2°40.812 7.1 341 15.3 101560 79
2008-07-17 07:44:51 51°10.263 2°40.794 8.1 278 15.3 101560 79
2008-07-17 07:44:56 51°10.256 2°40.774 8.2 345 15.4 101550 79
2008-07-17 07:45:01 51°10.248 2°40.756 8.4 277 15.4 101550 79
2008-07-17 07:45:06 51°10.241 2°40.737 8.7 345 15.3 101560 79
2008-07-17 07:45:11 51°10.234 2°40.718 8.9 282 15.3 101560 79
2008-07-17 07:45:16 51°10.228 2°40.698 8.6 344 15.3 101560 79
2008-07-17 07:45:21 51°10.221 2°40.679 9.3 277 15.3 101560 79
2008-07-17 07:45:26 51°10.214 2°40.659 8.5 342 15.3 101560 79
2008-07-17 07:45:31 51°10.208 2°40.64 8.6 284 15.3 101560 79
2008-07-17 07:45:36 51°10.201 2°40.62 8.4 341 15.4 101550 79
2008-07-17 07:45:41 51°10.195 2°40.601 8.1 282 15.4 101550 79
2008-07-17 07:45:46 51°10.188 2°40.581 7.9 345 15.3 101550 79
2008-07-17 07:45:51 51°10.182 2°40.562 7.7 278 15.3 101550 79
2008-07-17 07:45:56 51°10.175 2°40.543 7.7 345 15.4 101560 79
2008-07-17 07:46:01 51°10.168 2°40.523 8 280 15.4 101560 79
2008-07-17 07:46:06 51°10.161 2°40.504 8.9 343 15.4 101560 79
2008-07-17 07:46:11 51°10.155 2°40.485 7.7 282 15.4 101560 79
2008-07-17 07:46:16 51°10.148 2°40.465 8.8 342 15.3 101560 79
2008-07-17 07:46:21 51°10.142 2°40.447 8.2 284 15.3 101560 79
2008-07-17 07:46:26 51°10.136 2°40.43 7.8 343 15.3 101560 79
2008-07-17 07:46:31 51°10.13 2°40.413 8 279 15.3 101560 79
2008-07-17 07:46:36 51°10.125 2°40.397 8.2 343 15.4 101560 80
2008-07-17 07:46:41 51°10.119 2°40.382 8.4 347 15.4 101560 80
2008-07-17 07:46:46 51°10.115 2°40.366 8 343 15.4 101560 80
2008-07-17 07:46:51 51°10.11 2°40.352 7.4 278 15.4 101560 80
2008-07-17 07:46:56 51°10.106 2°40.337 8.4 342 15.4 101560 80
2008-07-17 07:47:01 51°10.102 2°40.323 7.6 278 15.4 101560 80
2008-07-17 07:47:06 51°10.098 2°40.309 8.3 342 15.4 101560 79
2008-07-17 07:47:11 51°10.095 2°40.296 8.1 279 15.4 101560 79
2008-07-17 07:47:16 51°10.091 2°40.282 7.3 339 15.4 101560 79
2008-07-17 07:47:21 51°10.088 2°40.269 8.2 342 15.4 101560 79
2008-07-17 07:47:26 51°10.084 2°40.256 8.3 341 15.3 101560 78
2008-07-17 07:47:31 51°10.081 2°40.244 8.3 283 15.3 101560 78
2008-07-17 07:47:36 51°10.078 2°40.231 8.3 341 15.3 101560 78
2008-07-17 07:47:41 51°10.075 2°40.218 7.9 284 15.3 101560 78
2008-07-17 07:47:46 51°10.073 2°40.206 8.2 338 15.3 101560 78
2008-07-17 07:47:51 51°10.072 2°40.192 7.7 281 15.3 101560 78
2008-07-17 07:47:56 51°10.072 2°40.179 8.2 331 15.3 101560 78
2008-07-17 07:48:01 51°10.074 2°40.165 8.8 280 15.3 101560 78
2008-07-17 07:48:05 51°10.076 2°40.155 8.4 322 15.3 101560 78
2008-07-17 07:48:11 51°10.08 2°40.141 7.9 278 15.3 101560 78
2008-07-17 07:48:16 51°10.085 2°40.13 6.4 27 15.3 101560 78
2008-07-17 07:48:21 51°10.091 2°40.122 6.5 279 15.3 101560 78
2008-07-17 07:48:26 51°10.098 2°40.114 7.5 20 15.3 101560 77
2008-07-17 07:48:31 51°10.105 2°40.109 7.3 284 15.3 101560 77
2008-07-17 07:48:36 51°10.112 2°40.106 7.3 27 15.3 101560 77
2008-07-17 07:48:41 51°10.12 2°40.105 6.4 283 15.3 101560 77
2008-07-17 07:48:45 51°10.126 2°40.106 5.7 23 15.3 101560 77
2008-07-17 07:48:51 51°10.134 2°40.11 4.8 283 15.3 101560 77
2008-07-17 07:48:56 51°10.14 2°40.116 5.9 254 15.3 101570 77
2008-07-17 07:49:01 51°10.146 2°40.124 4.4 278 15.3 101570 77
2008-07-17 07:49:06 51°10.15 2°40.133 3.2 259 15.4 101570 77
2008-07-17 07:49:11 51°10.154 2°40.143 2.1 283 15.4 101570 77
2008-07-17 07:49:16 51°10.155 2°40.154 2.6 32 15.4 101570 77
2008-07-17 07:49:21 51°10.156 2°40.166 1.9 82 15.4 101570 77
2008-07-17 07:49:26 51°10.156 2°40.18 1.5 270 15.4 101570 77
2008-07-17 07:49:31 51°10.156 2°40.194 1.2 280 15.4 101570 77
2008-07-17 07:49:36 51°10.156 2°40.21 1.7 256 15.4 101580 77
2008-07-17 07:49:41 51°10.157 2°40.227 2.2 286 15.4 101580 77
2008-07-17 07:49:46 51°10.157 2°40.245 1.4 29 15.4 101580 77
2008-07-17 07:49:51 51°10.158 2°40.263 1.7 278 15.4 101580 77
2008-07-17 07:49:56 51°10.158 2°40.283 1.5 25 15.4 101580 77
2008-07-17 07:50:01 51°10.159 2°40.303 1.8 279 15.4 101580 77
2008-07-17 07:50:06 51°10.159 2°40.324 1.7 25 15.4 101580 77
2008-07-17 07:50:11 51°10.16 2°40.345 1.5 278 15.4 101580 77
2008-07-17 07:50:16 51°10.16 2°40.366 1.5 26 15.4 101580 77